Regional Weather Roundup
Issued by NWS

Home | Current Version | Previous Version | Text Only | Print | Product List | Glossary Off
Versions: 1 2 3 4 5 6 7 8 9 10 11 12 13 14 15 16 17 18 19 20 21 22 23 24 25 26 27 28 29 30 31 32 33 34 35 36 37 38 39 40 41 42 43 44 45 46 47 48 49 50

772
ASUS44 KLIX 232101
RWRLA
LOUISIANA WEATHER ROUNDUP
NATIONAL WEATHER SERVICE NEW ORLEANS LA
400 PM CDT WED APR 23 2014

NOTE: "FAIR" INDICATES FEW OR NO CLOUDS BELOW 12,000 FEET WITH NO
      SIGNIFICANT WEATHER AND/OR OBSTRUCTIONS TO VISIBILITY.
      SKY/WX - SKY CONDITION AND SIGNIFICANT WEATHER.
      TMP - AIR TEMPERATURE.    DP   - DEWPOINT TEMPERATURE.
      RH  - RELATIVE HUMIDITY.  PRES - PRESSURE.
      HX  - HEAT INDEX.         WCI  - WIND CHILL INDEX.

*  THESE STATIONS ARE NOT NWS OR FAA STATIONS AND ARE NOT UNDER
   NWS QUALITY CONTROL.

LAZ040-048-061>063-065-066-069-232200-
SOUTHEAST LOUISIANA

CITY           SKY/WX    TMP DP  RH WIND       PRES   REMARKS
N.O. AUDUBON     N/A     87  59  38 MISG        N/A
N.O. INTL ARPT MOSUNNY   82  57  42 VRB3      29.91F
N.O. LAKEFRONT SUNNY     79  62  56 NW5       29.92F
N.O. DOWNTOWN* FAIR      84  54  34 N5        29.92F
SLIDELL        MOSUNNY   81  56  42 VRB7      29.90F
BATON ROUGE    MOSUNNY   85  53  33 VRB7      29.90F
BOOTHVILLE     SUNNY     78  61  55 E5        29.93F
BELLE CHASSE   CLOUDY    80  59  48 CALM      29.91F
BOGALUSA*        N/A     86  53  32 CALM      29.91F
GALLIANO*      NOT AVBL
NEW ROADS*     NOT AVBL
GONZALES*      NOT AVBL
HAMMOND*       NOT AVBL
HOUMA*         MOSUNNY   84  57  39 SW7       29.91F
PORT FOURCHON* CLEAR     77  63  61 S7        29.94F

$$

LAZ041-044-053-054-232200-
SOUTHWEST LOUISIANA

CITY           SKY/WX    TMP DP  RH WIND       PRES   REMARKS
LAKE CHARLES   PTSUNNY   79  63  57 S9        29.90F
LAFAYETTE      CLOUDY    83  57  41 E5        29.90F
PATTERSON      PTSUNNY   79  63  57 CALM      29.95F
SALT POINT       N/A     79  68  69 VRB6      29.92F
NEW IBERIA     PTSUNNY   83  61  47 SW9       29.91F
CHENAULT AIRPK MOSUNNY   82  63  51 S10G16    29.90F

$$

LAZ027-028-232200-
CENTRAL LOUISIANA

CITY           SKY/WX    TMP DP  RH WIND       PRES   REMARKS
FORT POLK      PTSUNNY   82  55  39 VRB3      29.89F
ALEXANDRIA INT SUNNY     84  55  36 CALM      29.89F
ALEXANDRIA     MOSUNNY   86  52  30 VRB3      29.90F

$$

LAZ001-002-232200-
NORTHWEST LOUISIANA

CITY           SKY/WX    TMP DP  RH WIND       PRES   REMARKS
SHREVEPORT     MOSUNNY   83  57  41 SE12      29.87F
BARKSDALE AFB  NOT AVBL
DTN SHREVEPORT MOSUNNY   81  58  45 SE10      29.88F

$$

LAZ014-016-232200-
NORTHEAST LOUISIANA

CITY           SKY/WX    TMP DP  RH WIND       PRES   REMARKS
MONROE         SUNNY     83  47  28 VRB5      29.93F
TALLULAH       SUNNY     81  44  27 N8        29.93F

$$




USA.gov is the U.S. government's official web portal to all federal, state and local government web resources and services.